Content
SEND FEEDBACK

Daily
Averages
Monthly
Summary
Japan

CHIFUWA, JAPAN


Home > Asia > Japan
Elevation: 2 feet     Latitude: 26 12N     Longitude: 127 39E

WEATHER
 
SELECT A DAY
Number of Records: 42,866;   Date Range: 11/9/96 - 11/26/14
 
SHARE

PRINT THIS DATA

[ ← Previous Day ]
WEATHER ALMANAC - JANUARY 31, 2013
[ Next Day → ]
[ °C ]   °F
Weather ElementAverageHighLow
Temperature68.8 °F72 °F (11:58 am)66 °F (1:58 am)
Dewpoint57.4 °F59.7 °F (5:58 am)55 °F (8:58 pm)
Humidity67.2 %78 % (5:58 am)57 % (1:58 pm)
Barometer30.22 in30.27 in (9:58 am)29.90 in (9:58 pm)
Wind Speed10.5 mph17.3 mph (10:58 am)
Wind Gust26.5 mph (10:58 am)
Weather ElementAverage
Visibility6.1 mi
Wind DirectionESE (121.7 °)

Weather ElementTotal
Precipitation0.03 in
Cooling Degree Days4 (Base 65)
Growing Degree Days19 (Base 50)
Averaged from 23 records on January 31, 2013
WEATHER CONDITIONS BREAKOUT
WIND DIRECTION BREAKOUT
WEATHER BY HOUR - JANUARY 31, 2013
[ °C ]   °F
Local TimeTemperatureDewpointHumidityBarometerVisibilityWind DirectionWind SpeedGust SpeedPrecipitationEventsConditions
1:58 AM66.0 °F57.0 °F73 %30.22 in5.6 miEast (100°)6.9 mph0.00 inDrizzle
2:58 AM66.0 °F57.0 °F73 %30.22 in5.0 miEast (90°)10.4 mph0.00 inRainLight Rain
3:58 AM66.9 °F57.0 °F70 %30.21 in6.2 miEast (100°)9.2 mph0.01 inOvercast
4:58 AM66.0 °F57.9 °F75 %30.21 in6.2 miEast (100°)9.2 mph20.7 mphMostly Cloudy
5:58 AM66.9 °F59.7 °F78 %30.22 in6.2 miESE (120°)9.2 mph23.0 mph0.02 inMostly Cloudy
6:58 AM66.9 °F57.0 °F70 %30.23 in6.2 miSE (130°)9.2 mph19.6 mphMostly Cloudy
7:58 AM66.9 °F57.4 °F71 %30.25 in6.2 miESE (120°)9.2 mph18.4 mphMostly Cloudy
8:58 AM68.0 °F59.2 °F73 %30.26 in6.2 miESE (120°)16.1 mphMostly Cloudy
9:58 AM69.1 °F57.9 °F68 %30.27 in6.2 miSE (140°)15.0 mphMostly Cloudy
10:58 AM70.0 °F57.9 °F65 %30.27 in6.2 miSE (130°)17.3 mph26.5 mphMostly Cloudy
11:58 AM72.0 °F58.8 °F63 %30.27 in6.2 miSE (130°)11.5 mph20.7 mphMostly Cloudy
12:58 PM71.1 °F55.4 °F58 %30.25 in6.2 miESE (120°)11.5 mphMostly Cloudy
1:58 PM72.0 °F55.9 °F57 %30.22 in6.2 miSE (130°)10.4 mph18.4 mphMostly Cloudy
2:58 PM71.1 °F57.9 °F63 %30.22 in6.2 miSE (140°)10.4 mph20.7 mphOvercast
3:58 PM72.0 °F57.9 °F61 %30.20 in6.2 miSE (140°)11.5 mph23.0 mphMostly Cloudy
4:58 PM71.1 °F55.9 °F59 %30.21 in6.2 miESE (120°)11.5 mph19.6 mphMostly Cloudy
5:58 PM69.1 °F58.3 °F68 %30.24 in6.2 miESE (120°)5.8 mphScattered Clouds
6:58 PM69.1 °F58.3 °F68 %30.25 in6.2 miESE (120°)9.2 mph17.3 mphMostly Cloudy
7:58 PM68.0 °F58.5 °F71 %30.24 in6.2 miEast (100°)9.2 mphMostly Cloudy
8:58 PM68.0 °F55.0 °F63 %30.25 in6.2 miSE (130°)11.5 mph19.6 mphScattered Clouds
9:58 PM69.1 °F58.8 °F70 %29.90 in6.2 miSE (130°)8.1 mphMostly Cloudy
10:58 PM68.0 °F56.3 °F66 %30.26 in6.2 miSE (130°)6.9 mphMostly Cloudy
11:58 PM68.0 °F55.0 °F63 %30.25 in6.2 miSE (140°)11.5 mphMostly Cloudy
Hourly data recorded from ROTM, located miles away from Chifuwa, Japan







STORIES FROM OUR PARTNERS